Voltar ao catálogo

CZ-6A DEB

AtivoPO
NORAD 61111·DEBRIS·🇨🇳 China

Lançado Aug 6, 2024 de Taiyuan Satellite Launch Center

Loading…

Próximas Passagens (próximas 24 horas)

TLE

AtualizadoSource: Space-Track

Época: Sep 14, 2026, 09:54 UTC

1 61111U 24140PD  26257.41257797  .00000599  00000-0  19328-3 0  9994
2 61111  88.8976 253.0942 0069170  75.7752 285.1118 14.36522132106292

Acompanhe CZ-6A DEB em tempo real com AllMySat

Download on the App Store